Theta_e
326 326 326 327 327 326 326 327 328 328 329 330 342 345 350 354 358 359 360 360 360 359 361 358 357 357 357 358 357 358 359 359 359 360 361 361 364 364 363 364 364 364 365 365
326 326 326 325 325 326 326 327 327 327 328 329 333 343 348 355 358 359 357 357 357 355 356 357 357 357 357 356 354 354 351 349 350 355 358 358 356 355 352 355 356 357 360 363
328 327 328 329 327 325 325 326 327 327 328 329 329 338 347 355 356 356 354 353 352 353 352 353 351 349 349 349 350 348 346 339 337 339 345 354 359 352 347 357 355 350 357 359
330 330 333 329 329 328 326 326 326 327 329 335 334 339 345 351 354 354 352 351 351 348 349 349 349 348 348 348 347 349 350 349 350 351 352 354 356 357 358 360 361 358 360 362
333 332 331 330 330 330 328 327 326 328 330 330 333 338 345 349 352 353 351 349 347 347 347 347 346 347 346 345 346 344 344 346 347 350 353 353 353 356 357 358 359 359 361 364
330 332 334 331 330 329 329 330 327 327 330 334 337 341 341 350 349 349 348 346 345 345 344 344 344 343 342 341 342 343 344 345 347 348 350 350 353 356 357 358 360 359 359 360
329 330 330 330 329 328 333 331 328 328 332 336 344 340 347 350 349 346 346 344 343 342 342 340 338 335 334 334 335 337 339 342 344 346 347 348 350 351 353 352 358 360 357 357
330 331 331 328 328 331 337 337 334 335 335 338 343 348 350 350 349 348 346 343 341 339 338 336 335 334 334 333 332 333 334 338 341 341 343 344 346 348 350 350 358 357 357 355
334 329 331 329 329 339 337 336 337 338 338 339 341 348 348 350 348 346 344 341 338 337 336 335 335 333 331 331 331 331 332 334 337 340 341 342 343 344 345 349 348 352 354 357
333 330 329 329 333 336 336 334 335 335 337 338 340 343 345 347 344 340 337 336 335 335 335 333 332 330 329 330 331 332 333 333 334 336 337 340 339 340 342 343 344 345 344 347
334 332 331 330 328 329 332 333 334 334 337 338 341 343 344 339 338 337 335 335 335 335 333 332 329 328 328 329 331 332 331 331 331 330 333 335 336 337 338 338 334 336 339 337
331 329 331 332 328 327 330 334 334 341 344 342 342 341 337 337 337 335 334 333 333 334 331 329 327 327 328 329 330 331 329 328 328 329 330 331 333 334 335 335 334 334 334 334
328 328 329 330 330 331 332 334 338 343 343 342 338 335 336 335 335 333 332 331 331 330 328 328 327 326 326 326 328 329 329 327 326 327 327 329 330 332 333 334 335 335 334 332
323 326 327 328 332 331 332 333 337 339 339 335 330 327 327 330 331 331 331 330 329 328 328 327 326 325 324 324 325 326 326 324 324 324 325 326 327 329 330 331 332 335 332 332
324 325 325 325 327 327 330 336 337 338 335 334 330 328 327 327 328 328 329 329 328 328 327 327 326 324 323 323 323 323 323 323 322 322 323 324 325 327 327 327 328 330 329 329
325 325 324 325 327 330 331 331 334 334 334 333 332 329 327 326 328 328 328 328 328 327 327 326 324 322 321 322 322 321 321 320 320 321 322 323 323 325 324 324 323 325 326 320
324 325 325 327 329 333 330 329 328 327 328 328 327 327 327 326 328 328 328 327 327 326 325 325 323 321 320 319 319 319 319 319 318 320 320 320 321 321 319 320 320 321 320 317
322 324 325 327 328 330 327 324 323 322 323 323 324 325 326 327 326 327 326 325 325 325 324 323 321 320 319 316 316 317 317 317 318 318 317 317 315 315 316 316 317 318 317 314
322 326 326 325 326 326 323 325 324 323 324 324 324 325 325 325 326 325 324 324 324 323 322 318 316 319 318 311 313 315 315 315 315 315 313 312 312 313 314 314 313 313 312 310
324 325 325 326 324 323 326 323 323 323 323 323 324 325 325 326 325 324 324 323 323 322 321 318 318 316 315 312 312 313 313 313 312 310 309 308 308 308 309 309 308 309 308 307
325 325 325 329 326 325 322 322 322 321 321 323 323 324 324 326 324 323 323 321 320 319 318 317 316 314 312 313 313 312 311 310 308 307 306 305 304 304 305 305 305 304 304 304
324 323 324 325 322 321 320 320 321 321 321 322 322 322 322 325 323 322 321 320 318 315 316 315 314 311 312 312 313 311 311 309 307 306 305 304 303 302 302 302 302 301 301 300
320 319 323 321 321 322 320 320 321 321 322 322 321 321 321 322 323 321 320 318 317 315 317 314 310 308 311 314 313 311 310 309 307 305 304 303 302 301 301 300 300 299 299 299
324 323 322 322 322 323 324 322 322 322 322 322 321 321 322 322 322 320 318 315 314 313 314 312 310 308 309 313 313 312 310 308 307 306 305 303 301 301 301 300 299 299 298 297
323 323 323 323 323 324 323 322 321 320 320 320 320 321 322 321 319 317 316 314 312 311 312 310 310 308 309 312 312 312 310 307 306 306 305 303 302 300 300 300 299 298 298 298
321 321 321 321 321 321 320 320 320 320 320 321 322 322 322 321 318 317 315 313 312 310 313 311 310 309 311 312 312 311 311 309 307 305 305 303 302 300 299 300 299 299 298 298
316 318 319 318 319 316 317 319 320 319 320 321 321 321 320 318 316 315 313 313 313 313 313 312 312 310 311 312 312 311 311 311 309 308 305 304 302 301 299 298 300 298 298 299
Wind_Speed
20 20 17 11 17 21 21 18 19 15 16 14 16 12 12 12 11 9 9 9 9 7 7 9 9 8 14 13 13 10 8 2 4 7 5 7 6 4 7 12 14 15 19 21
23 23 20 22 20 16 17 20 19 18 19 15 7 11 11 11 13 12 10 10 11 11 11 10 11 12 12 10 10 9 11 11 10 12 9 6 7 4 4 10 17 20 17 17
22 21 22 25 21 20 19 19 16 17 12 13 9 8 12 11 14 14 13 11 10 12 11 9 12 11 9 7 5 4 7 5 7 15 15 14 14 13 10 12 18 23 16 18
16 19 29 19 21 20 22 21 17 14 9 3 4 8 11 13 14 13 11 13 12 12 13 11 9 8 8 7 5 5 7 5 3 8 4 15 13 11 10 12 17 15 17 19
16 18 21 20 18 22 18 20 20 17 14 8 8 8 10 13 14 13 10 9 9 11 10 10 10 11 8 6 6 6 5 3 4 3 5 9 9 11 11 11 15 15 13 11
18 24 28 20 19 11 12 18 15 14 13 11 11 11 10 14 13 9 14 17 15 16 15 13 10 10 9 8 6 4 4 4 7 7 9 13 14 14 12 13 16 14 16 11
20 21 21 16 15 16 22 12 17 19 12 14 14 4 10 18 15 15 14 17 17 16 14 13 12 12 12 11 8 5 6 7 7 10 13 13 16 19 21 20 15 11 13 12
18 22 24 21 7 13 3 8 1 8 13 13 14 8 15 18 17 17 16 19 17 16 14 12 11 9 9 10 6 6 6 5 7 9 10 12 14 16 16 18 13 10 10 9
18 9 15 7 6 11 10 3 6 6 7 11 13 15 15 18 17 19 23 21 20 17 15 11 8 7 8 8 8 9 9 10 9 9 9 9 11 12 15 12 16 15 12 11
9 20 17 12 3 4 5 5 3 5 10 10 12 15 15 14 12 14 20 19 18 15 11 8 8 8 7 5 5 5 6 8 9 9 10 9 11 11 13 12 12 13 14 18
4 23 20 23 15 9 3 5 3 4 5 8 10 14 15 9 5 14 13 16 17 15 12 9 8 7 6 5 4 5 5 6 7 8 8 9 10 12 11 11 10 10 9 10
3 5 3 22 21 18 10 8 7 9 9 8 17 17 13 13 14 16 10 11 12 17 11 9 8 6 5 6 6 8 7 9 8 8 8 11 12 14 14 14 14 11 10 11
3 14 6 17 22 14 14 9 8 12 17 22 19 19 19 14 14 15 10 11 12 12 11 10 8 6 7 7 8 7 7 8 9 10 11 10 11 13 15 17 14 11 8 6
11 19 17 12 13 7 14 13 15 17 22 24 30 33 17 12 12 10 11 11 11 13 9 6 7 6 6 7 6 7 8 2 9 11 12 12 13 10 12 14 14 10 7 8
15 22 15 17 15 9 3 13 11 17 19 19 23 24 24 22 18 10 10 10 9 8 7 5 5 5 7 7 8 7 7 8 10 12 13 13 13 10 11 12 14 13 12 9
15 13 14 17 14 13 14 15 15 15 16 16 15 18 17 21 19 15 11 11 13 12 9 7 4 4 6 8 9 7 8 6 9 13 14 14 14 15 12 13 13 13 12 13
11 13 14 19 9 17 19 15 12 13 15 16 21 23 21 22 20 18 17 14 12 11 10 8 6 6 5 8 9 8 9 10 13 12 15 16 14 14 13 13 14 13 12 13
11 9 13 11 6 18 17 15 17 18 12 17 20 20 21 20 18 17 17 16 14 13 11 9 6 5 5 8 8 8 10 11 13 14 15 15 14 17 15 13 12 13 12 13
6 5 13 6 15 12 15 12 16 19 19 17 17 18 19 19 19 16 16 15 15 16 14 9 8 6 7 10 8 10 12 13 14 14 14 15 16 15 14 12 12 12 11 12
3 8 12 16 10 17 16 19 19 19 20 20 19 18 16 17 22 18 16 12 10 16 13 9 8 8 7 10 10 13 15 15 15 14 14 15 13 15 15 13 12 11 10 9
9 8 0 9 12 26 22 19 19 18 18 18 17 16 17 19 18 16 15 13 10 10 12 9 7 7 7 8 12 14 16 16 15 14 14 14 14 15 15 13 11 10 10 10
13 10 4 6 12 17 18 17 17 16 16 15 15 14 14 18 16 14 7 14 14 13 12 11 9 7 6 7 11 13 15 14 10 10 11 11 12 13 13 11 11 9 8 8
21 19 11 11 12 14 15 15 15 14 13 12 12 13 13 16 16 12 11 9 14 13 8 13 10 6 5 2 6 8 12 14 14 14 12 12 11 11 11 10 9 9 8 8
10 14 16 16 17 15 10 12 12 11 11 12 12 13 12 11 10 6 14 11 13 12 5 13 9 4 4 6 4 5 8 11 13 13 11 12 12 14 12 11 10 9 8 8
12 15 15 13 11 10 9 9 10 10 11 11 13 13 14 17 15 15 11 12 12 11 10 11 8 6 7 8 2 5 5 8 12 14 15 12 12 16 14 13 11 10 12 12
8 8 9 5 9 8 6 7 8 12 14 11 10 10 11 10 12 14 14 12 12 11 12 10 10 9 11 6 2 4 6 3 5 10 15 15 11 9 14 15 15 12 11 11
8 7 8 9 7 9 5 6 9 5 8 14 14 13 13 13 14 14 12 12 11 11 10 13 11 10 9 4 6 4 3 3 3 2 5 11 12 9 12 13 14 16 12 13
Wind_Direction
253 267 274 261 219 215 237 241 251 252 244 247 195 190 164 151 153 158 145 140 127 109 98 125 125 134 99 106 105 92 100 108 258 250 259 260 251 270 301 304 286 278 273 272
254 257 256 253 252 235 242 229 240 253 262 276 120 144 161 162 168 171 159 138 122 107 90 118 120 120 121 116 104 117 90 84 17 356 343 303 283 255 236 277 292 294 293 287
245 243 248 251 240 240 244 247 226 243 243 246 221 169 173 181 190 175 164 148 148 117 114 125 112 106 99 95 100 110 119 210 263 281 282 274 275 274 270 288 286 290 294 289
248 245 242 250 254 238 237 242 229 237 234 258 254 179 176 177 201 178 177 163 159 134 137 143 141 134 130 112 88 93 88 116 201 231 278 272 276 288 287 294 289 301 294 289
246 249 258 248 250 243 236 238 233 229 225 207 234 196 178 174 194 184 193 129 140 130 120 104 126 142 133 145 104 58 26 15 15 320 294 287 303 284 303 311 294 284 287 291
245 251 249 252 243 222 240 251 243 235 206 189 200 210 203 172 177 154 142 142 161 148 140 140 145 130 113 97 86 62 41 10 0 359 344 345 332 329 323 313 296 280 281 275
231 247 256 266 270 292 212 239 226 219 198 193 188 245 102 132 151 147 155 149 138 147 135 129 130 129 119 110 87 58 30 19 1 357 0 349 343 344 336 335 305 270 273 269
240 241 240 249 315 258 34 52 183 168 188 179 186 132 148 143 154 161 157 142 147 133 130 125 123 117 102 86 65 40 32 20 12 4 350 347 340 332 327 335 314 271 262 266
274 263 278 268 285 48 349 131 149 179 162 180 182 159 167 144 161 161 152 152 140 136 134 115 100 90 77 43 35 27 14 6 360 352 351 347 337 338 328 334 349 339 305 270
345 247 255 279 121 142 278 284 207 219 191 198 194 163 165 144 156 155 153 143 135 133 123 115 95 78 72 54 30 31 27 6 350 341 337 347 342 336 335 338 340 337 349 342
251 275 287 279 238 240 235 274 229 214 174 194 158 155 135 120 155 116 140 140 138 137 136 139 110 96 86 75 66 64 53 22 360 343 329 326 338 331 333 337 338 329 334 331
238 285 229 270 236 237 228 217 227 124 124 106 118 123 101 110 118 115 147 146 145 140 133 128 133 128 101 67 55 43 27 30 13 346 346 340 332 326 326 325 332 330 331 329
249 236 240 306 295 180 185 178 146 144 131 120 102 87 119 121 116 120 175 168 151 134 138 141 132 114 77 56 44 41 20 14 347 342 344 342 336 334 326 325 325 329 318 311
313 288 300 170 246 194 163 172 133 147 142 137 131 122 97 73 97 150 176 168 127 129 128 118 105 74 54 48 35 26 7 8 349 335 331 331 336 329 321 320 323 328 332 312
249 257 274 278 275 223 137 127 166 168 159 159 158 157 161 146 149 190 200 138 118 119 153 146 109 68 46 32 27 13 353 349 343 326 320 324 312 330 331 320 318 319 321 321
276 249 270 254 250 189 182 144 163 171 157 156 157 169 157 149 148 176 173 167 172 173 144 136 132 85 48 28 9 352 350 348 345 333 318 318 326 325 328 325 320 321 327 328
274 253 253 240 192 215 156 142 146 147 147 148 147 155 161 154 159 164 169 175 135 138 144 148 117 73 53 28 4 351 342 337 332 334 331 325 323 324 321 320 320 319 317 317
249 260 266 286 48 190 125 129 147 144 145 139 141 152 155 156 161 160 162 158 157 147 145 126 113 106 57 23 7 352 350 344 338 333 326 328 325 313 315 317 316 315 315 314
282 288 250 144 252 117 111 124 139 137 132 135 149 156 162 162 143 141 159 157 152 146 127 121 123 79 62 27 18 11 8 356 350 346 337 326 320 317 317 318 320 316 316 316
237 160 279 227 97 115 144 145 139 140 142 148 151 149 154 145 143 163 158 145 124 135 138 136 109 82 73 42 29 26 17 7 358 352 347 334 329 324 321 324 322 319 319 319
102 108 147 120 176 152 124 139 145 142 146 148 151 156 156 141 147 157 159 141 125 135 130 138 117 91 68 52 37 35 23 11 2 356 349 344 342 341 335 334 337 334 328 329
123 95 19 49 103 108 126 137 140 140 143 148 151 154 159 141 159 172 149 130 141 151 158 146 117 89 91 56 46 35 27 20 6 2 354 351 356 0 356 354 356 355 353 358
143 150 166 143 132 124 136 139 142 146 148 155 163 149 182 166 163 158 159 144 146 174 175 136 134 116 118 46 65 44 28 28 25 19 9 7 9 15 17 13 17 17 20 26
137 147 155 152 145 136 131 138 139 149 162 171 176 174 165 154 153 176 130 135 132 166 104 133 135 148 211 251 93 55 39 33 30 26 20 30 25 23 26 28 30 24 32 39
142 141 142 140 133 124 133 147 150 160 174 186 171 179 156 172 171 146 156 154 164 184 192 178 184 198 226 243 126 106 73 47 39 40 34 38 36 35 34 32 29 43 50 45
80 70 105 96 92 119 134 173 185 181 185 162 143 153 169 176 148 148 151 155 173 196 180 168 182 205 231 238 209 152 134 118 64 58 53 48 46 44 45 40 36 37 45 59
80 78 86 95 95 73 55 232 121 130 132 153 153 164 162 153 162 167 165 170 173 180 176 172 191 201 245 226 204 175 172 162 186 145 67 60 58 61 61 52 47 41 44 53